Lexington, KY

11:30 PM EDT on September 22, 2017 (GMT -0400)
Blue Grass

Weather History for KLEX - December, 2012

Change the Weather History Date:

Sunday, December 2, 2012

  Actual Average Record
Temperature  
Mean Temperature 59 °F 40 °F  
Max Temperature 67 °F 48 °F 75 °F (1982)
Min Temperature 51 °F 32 °F 4 °F (1929)
Degree Days  
Heating Degree Days 6 25  
Month to date heating degree days 17 50  
Since 1 July heating degree days 1079 937  
Cooling Degree Days 0 0  
Month to date cooling degree days 0 0  
Year to date cooling degree days 1359 1190  
Growing Degree Days 8 (Base 50)    
Moisture  
Dew Point 51 °F    
Average Humidity 75    
Maximum Humidity 87    
Minimum Humidity 63    
Precipitation  
Precipitation 0.15 in 0.13 in 3.32 in (1991)
Month to date precipitation 0.15 0.25  
Year to date precipitation 36.22 41.49  
Snow  
Snow 0.00 in 0.10 in 1.80 in (1929)
Month to date snowfall 0.0 0.1  
Since 1 July snowfall 0.0 0.4  
Snow Depth 0.00 in    
Sea Level Pressure  
Sea Level Pressure 30.15 in    
Wind  
Wind Speed 13 mph (SSW)    
Max Wind Speed 29 mph    
Max Gust Speed 37 mph    
Visibility 10 miles    
Events Rain    
T = Trace of Precipitation, MM = Missing Value Source: NWS Daily Summary

Daily Weather History Graph

Daily Weather History Graph

Search for Another Location

Airport or City:

Trip Planner

Search our weather history database for the weather conditions in past years. The results will help you decide how hot, cold, wet, or windy it might be!

Date:

Astronomy

Dec. 02, 2012 Rise Set
Actual Time 7:37 AM EST 5:18 PM EST
Civil Twilight 7:08 AM EST 5:47 PM EST
Nautical Twilight 6:35 AM EST 6:20 PM EST
Astronomical Twilight 6:03 AM EST 6:52 PM EST
Moon 9:03 PM EST (12/2) 10:27 AM EST (12/2)
Length of Visible Light 10h 39m
Length of Day
9h 41m
Waning Gibbous, 86% of the Moon is Illuminated
Dec 2
Waning Gibbous
Dec 6
Last Quarter
Dec 13
New
Dec 20
First Quarter
Dec 28
Full

Hourly Weather History & Observations

Time (EST) Temp. Dew Point Humidity Pressure Visibility Wind Dir Wind Speed Gust Speed Precip Events Conditions
12:54 AM 52.0 °F 46.0 °F 80% 30.20 in 10.0 mi South 9.2 mph - N/A   Clear
1:54 AM 53.1 °F 46.0 °F 77% 30.20 in 10.0 mi South 10.4 mph - N/A   Clear
2:54 AM 52.0 °F 45.0 °F 77% 30.19 in 10.0 mi South 10.4 mph - N/A   Clear
3:54 AM 53.1 °F 45.0 °F 74% 30.18 in 10.0 mi South 12.7 mph - N/A   Clear
4:54 AM 53.1 °F 45.0 °F 74% 30.17 in 10.0 mi South 13.8 mph - N/A   Clear
5:54 AM 53.1 °F 45.0 °F 74% 30.16 in 10.0 mi South 15.0 mph - N/A   Partly Cloudy
6:54 AM 53.1 °F 45.0 °F 74% 30.16 in 10.0 mi South 13.8 mph - N/A   Clear
7:54 AM 55.0 °F 45.0 °F 69% 30.16 in 10.0 mi South 16.1 mph 21.9 mph N/A   Overcast
8:54 AM 57.9 °F 46.0 °F 65% 30.15 in 10.0 mi South 18.4 mph 25.3 mph N/A   Overcast
9:54 AM 61.0 °F 48.9 °F 64% 30.14 in 10.0 mi SSW 23.0 mph 28.8 mph N/A   Mostly Cloudy
10:54 AM 64.0 °F 52.0 °F 65% 30.14 in 10.0 mi SSW 20.7 mph 33.4 mph N/A   Overcast
11:54 AM 64.0 °F 51.1 °F 63% 30.12 in 10.0 mi SSW 26.5 mph 34.5 mph N/A   Overcast
12:54 PM 66.9 °F 53.1 °F 61% 30.10 in 10.0 mi SSW 18.4 mph 35.7 mph N/A   Overcast
1:54 PM 62.1 °F 55.0 °F 78% 30.11 in 4.0 mi SW 12.7 mph - 0.03 in Rain Light Rain
2:54 PM 61.0 °F 55.0 °F 81% 30.10 in 10.0 mi SW 15.0 mph 23.0 mph 0.09 in Rain Light Rain
3:54 PM 60.1 °F 57.0 °F 90% 30.11 in 10.0 mi SW 5.8 mph - 0.00 in   Overcast
4:54 PM 61.0 °F 55.0 °F 81% 30.12 in 10.0 mi SW 8.1 mph - 0.00 in   Overcast
5:54 PM 60.1 °F 55.0 °F 83% 30.14 in 10.0 mi SSW 5.8 mph - 0.00 in   Overcast
6:54 PM 59.0 °F 55.0 °F 87% 30.15 in 10.0 mi SSW 5.8 mph - 0.01 in   Overcast
7:54 PM 59.0 °F 55.0 °F 87% 30.16 in 10.0 mi SW 6.9 mph - 0.02 in   Overcast
8:38 PM 60.8 °F 55.4 °F 82% 30.16 in 10.0 mi SSW 8.1 mph - N/A   Overcast
8:54 PM 60.1 °F 55.0 °F 83% 30.16 in 10.0 mi SSW 8.1 mph - N/A   Overcast
9:54 PM 61.0 °F 54.0 °F 78% 30.17 in 10.0 mi SSW 10.4 mph - N/A   Overcast
10:54 PM 61.0 °F 54.0 °F 78% 30.17 in 10.0 mi South 8.1 mph - N/A   Overcast
11:54 PM 62.1 °F 55.0 °F 78% 30.17 in 10.0 mi SSW 10.4 mph - N/A   Overcast